Tracking 31030 objects as of 16-Jul-2025
HD Live streaming from Space Station
objects crossing your sky now

STARLINK-5471

Track STARLINK-5471 now!
10-day predictions
STARLINK-5471 is classified as:


NORAD ID: 54766
Int'l Code: 2022-175J
Perigee: 546.0 km
Apogee: 547.8 km
Inclination: 53.2 °
Period: 95.4 minutes
Semi major axis: 6917 km
RCS: Unknown
Launch date: December 17, 2022
Source: United States (US)
Launch site: AIR FORCE EASTERN TEST RANGE (AFETR)
Your satellite tracking list
Your tracking list is empty




NASA's NSSDC Master Catalog

Two Line Element Set (TLE):
1 54766U 22175J   25196.84525196  .00000319  00000-0  38128-4 0  9997
2 54766  53.2180  27.3483 0001256  93.8790 266.2346 15.08838128144165
Source of the keplerian elements: AFSPC